Flag for U.S.A. Weather past 2 weeks in Victorville, California, U.S.A.

Now
57 °F

Clear.


Feels Like: 57 °F
Forecast: 56 / 80 °F
Wind: No wind

Location: George Air Force Base / Victorvi

Current Time: Jun 3, 2015 at 6:40:31 AM

Latest Report: Jun 3, 2015 at 6:15 AM


Visibility: 10 mi

Pressure: 29.91 "Hg

Humidity: 67%

Dew point: 46 °F

Location of VictorvilleLocation

Historic Weather in Victorville — Graph

°F

Victorville temperature yesterday

Maximum temperature yesterday: 88 °F (at 2:55 PM)
Minimum temperature yesterday: 55 °F (at 4:55 AM)
Average temperature yesterday: 71 °F

Past Weeks' High & Low Weather Summary

 TemperatureHumidityPressure
High97 °F (May 30, 2:15 PM)87% (May 23, 1:35 AM)30.06 "Hg (May 23, 1:35 AM)
Low46 °F (May 19, 5:35 AM)5% (May 31, 1:15 PM)29.86 "Hg (May 20, 5:35 PM)
Average68 °F38%29.96 "Hg
* Reported May 19 5:15 AM — Jun 3 5:15 AM, Victorville, Weather by CustomWeather, © 2015

Note: Actual official high and low records may vary slightly from our data, if they occured in-between our weather recording intervals... More about our weather records

Advertising

Victorville weather history for previous 24 hours

 ConditionsComfort  
Time TempWeatherWind HumidityBarometerVisibility
5:15 AM
Wed, Jun 3
57 °FClear.No wind63%29.91 "Hg10 mi
4:55 AM57 °FClear.No wind67%29.91 "Hg10 mi
4:35 AM57 °FClear.No wind67%29.91 "Hg10 mi
4:15 AM57 °FClear.10 mph63%29.91 "Hg10 mi
3:55 AM59 °FClear.No wind59%29.91 "Hg10 mi
3:35 AM59 °FClear.No wind59%29.91 "Hg10 mi
3:15 AM59 °FClear.No wind59%29.92 "Hg10 mi
2:55 AM61 °FClear.12 mph55%29.92 "Hg10 mi
2:35 AM61 °FClear.No wind55%29.92 "Hg10 mi
2:15 AM61 °FClear.13 mph55%29.92 "Hg10 mi
1:55 AM61 °FClear.3 mph52%29.92 "Hg10 mi
1:35 AM61 °FClear.No wind52%29.93 "Hg10 mi
1:15 AM61 °FClear.No wind52%29.93 "Hg10 mi
12:55 AM61 °FClear.No wind52%29.94 "Hg10 mi
12:35 AM63 °FClear.9 mph49%29.95 "Hg10 mi
12:15 AM63 °FClear.13 mph45%29.95 "Hg10 mi
11:55 PM
Tue, Jun 2
63 °FClear.No wind42%29.95 "Hg10 mi
11:35 PM64 °FClear.No wind40%29.96 "Hg10 mi
11:15 PM64 °FClear.No wind40%29.96 "Hg10 mi
10:55 PM64 °FClear.No wind34%29.96 "Hg10 mi
10:35 PM66 °FClear.No wind37%29.96 "Hg10 mi
10:15 PM66 °FClear.No wind46%29.96 "Hg10 mi
9:55 PM68 °FClear.9 mph43%29.96 "Hg10 mi
9:35 PM70 °FClear.9 mph40%29.96 "Hg10 mi
9:15 PM72 °FClear.14 mph36%29.95 "Hg10 mi
8:15 PM73 °FSunny.No wind23%29.94 "Hg10 mi
7:55 PM73 °FSunny.10 mph17%29.93 "Hg10 mi
7:35 PM75 °FSunny.9 mph15%29.93 "Hg10 mi
7:15 PM77 °FSunny.12 mph15%29.92 "Hg10 mi
6:55 PM79 °FSunny.16 mph20%29.91 "Hg10 mi
6:15 PM82 °FSunny.16 mph21%29.90 "Hg10 mi
5:55 PM82 °FSunny.12 mph20%29.90 "Hg10 mi
5:35 PM84 °FSunny.10 mph19%29.90 "Hg10 mi
5:15 PM84 °FSunny.16 mph18%29.91 "Hg10 mi
4:55 PM86 °FSunny.14 mph15%29.90 "Hg10 mi
4:35 PM84 °FSunny.5 mph14%29.90 "Hg10 mi
4:15 PM86 °FSunny.5 mph14%29.91 "Hg10 mi
3:55 PM88 °FSunny.13 mph13%29.91 "Hg10 mi
3:35 PM86 °FSunny.14 mph12%29.92 "Hg10 mi
3:15 PM86 °FSunny.14 mph12%29.92 "Hg10 mi
2:55 PM88 °FSunny.14 mph12%29.93 "Hg10 mi
2:15 PM84 °FSunny.No wind12%29.94 "Hg10 mi
1:55 PM86 °FSunny.8 mph11%29.94 "Hg10 mi
1:35 PM84 °FSunny.13 mph13%29.94 "Hg10 mi
1:15 PM84 °FSunny.9 mph14%29.95 "Hg10 mi
12:55 PM82 °FSunny.No wind15%29.96 "Hg10 mi
12:15 PM82 °FSunny.13 mph15%29.97 "Hg10 mi
11:55 AM81 °FSunny.8 mph16%29.97 "Hg10 mi
11:35 AM81 °FSunny.13 mph16%29.98 "Hg10 mi
11:15 AM79 °FSunny.13 mph20%29.98 "Hg10 mi
10:55 AM77 °FSunny.13 mph22%29.98 "Hg10 mi
10:15 AM75 °FSunny.12 mph25%29.99 "Hg10 mi
9:55 AM73 °FSunny.No wind27%29.99 "Hg10 mi
9:15 AM70 °FSunny.No wind33%30.00 "Hg10 mi
8:55 AM70 °FSunny.No wind33%30.00 "Hg10 mi
8:15 AM66 °FSunny.12 mph40%30.00 "Hg10 mi
7:55 AM66 °FSunny.15 mph35%30.00 "Hg10 mi
7:35 AM64 °FSunny.3 mph40%30.00 "Hg10 mi
7:15 AM63 °FSunny.No wind42%30.00 "Hg10 mi
6:55 AM61 °FSunny.No wind45%29.99 "Hg10 mi
6:15 AM57 °FClear.No wind48%29.99 "Hg10 mi
Weather by CustomWeather, © 2015

See weather overviewHow to use our weather pages